Location: Quaker Farms
(41.4276°N, 73.1557°W)
Time: 19:59:10
(UTC+00:00)

S-56A Canister/Altair - Pass Details

Date: 15 June 2021
Orbit: 631 x 2501 km, 38.9° (Epoch: 30 July)

Event Time Altitude Azimuth Distance (km) Brightness Sun altitude
Rises 11:01:09 0° 240° (WSW) 2,931 9.9 16.6°
Reaches altitude 10° 11:03:19 10° 235° (SW) 2,082 9.3 17.0°
Maximum altitude 11:07:48 49° 160° (SSE) 988 8.4 17.8°
Drops below altitude 10° 11:13:43 10° 87° (E) 2,730 12.3 18.9°
Sets 11:16:56 0° 83° (E) 3,959 12.8 19.5°
